[[{"header":{"parameterUnit":"m.s-1","parameterCategory":1,"la1":30.2991,"la2":30.254,"lo1":-89.0895,"lo2":-89.0444,"dy":0.0017,"dx":0.0017,"nx":28,"ny":28,"refTime":"2023-09-10T21:00:00:Z","depth":0,"parameterNumber":2,"parameterNumberName":"U-component_of_WINDS"},"data":[0,0,0,0,0,0,0,0,0,0,0,0,0,0,0,0,0,0,0,0,0,0,0,0,0,0,0,0,0,0,0,0,0,0,0,0,0,0,0,0,0,0,0,0,0,0,0,0,0,0,0,0,0,0,0,0,0,0,-0.3811,-0.381,0,-0.3723,-0.3722,-0.3721,-0.3732,-0.3733,-0.3735,-0.3736,-0.3642,-0.3639,-0.3635,0,0,0,0,0,0,0,0,0,0,0,0,0,-0.3983,-0.398,-0.3811,-0.381,-0.3809,-0.3723,-0.3722,-0.3721,-0.3732,-0.3733,-0.3735,-0.3737,-0.3644,-0.3639,-0.3634,0,0,0,0,0,0,0,0,0,0,0,0,0,-0.3903,-0.3979,-0.3811,-0.3804,-0.3802,-0.3724,-0.3722,-0.3721,-0.3731,-0.3734,-0.3736,-0.3738,-0.3645,-0.3639,-0.3634,-0.3556,0,0,-0.3616,-0.3614,0,0,0,0,0,0,0,0,-0.3908,-0.3897,-0.3806,-0.3804,-0.3802,-0.3741,-0.3749,-0.3665,-0.3731,-0.3758,-0.3736,-0.3739,-0.3673,-0.3665,-0.3644,-0.3551,-0.3547,-0.3616,-0.3612,-0.361,-0.3608,0,0,0,0,0,0,0,-0.3913,-0.3901,-0.3776,-0.3805,-0.3802,-0.3804,-0.3795,-0.3733,-0.3704,-0.3756,-0.3757,-0.3746,-0.3672,-0.3649,-0.3642,-0.3546,-0.3616,-0.3611,-0.3607,-0.3605,-0.3384,-0.3381,0,0,0,0,0,0,-0.3921,-0.3905,-0.3779,-0.3773,-0.3861,-0.3799,-0.3789,-0.3758,-0.3705,-0.3699,-0.3745,-0.3747,-0.3658,-0.3648,-0.3639,-0.3543,-0.361,-0.3604,-0.3601,-0.3386,-0.3383,-0.338,0,0,0,0,0,0,-0.3925,-0.391,-0.3782,-0.3839,-0.3823,-0.3794,-0.3759,-0.3755,-0.3733,-0.3697,-0.3691,-0.3726,-0.3659,-0.3647,-0.3576,-0.354,-0.3602,-0.3597,-0.3389,-0.3385,-0.3382,-0.3352,0,0,0,0,0,0,-0.393,-0.3911,-0.3882,-0.3839,-0.382,-0.3723,-0.3757,-0.3752,-0.3723,-0.3726,-0.3678,-0.3672,-0.366,-0.3585,-0.3571,-0.3533,-0.3592,-0.3392,-0.3387,-0.3383,-0.3356,-0.3347,-0.334,0,0,0,0,0,-0.3936,-0.3876,-0.388,-0.3865,-0.3783,-0.3721,-0.371,-0.3698,-0.372,-0.369,-0.3667,-0.3674,-0.3546,-0.3578,-0.3562,-0.3522,-0.3394,-0.3389,-0.3383,-0.3359,-0.3349,-0.334,0,0,0,0,0,0,-0.3914,-0.387,-0.3875,-0.3799,-0.3764,-0.3723,-0.3684,-0.3688,-0.3644,-0.3648,-0.3634,-0.3624,-0.3552,-0.353,-0.3566,-0.3443,-0.3473,-0.3464,-0.346,-0.345,-0.3443,-0.3449,-0.3587,0,0,0,0,0,-0.3901,-0.3855,-0.3819,-0.3756,-0.3738,-0.3714,-0.3686,-0.368,-0.3642,-0.3627,-0.3599,-0.3561,-0.3512,-0.348,-0.3433,-0.3353,-0.3342,-0.3317,-0.331,-0.3304,-0.3296,-0.3251,-0.324,-0.3363,-0.3363,-0.3363,0,0,-0.3873,-0.3843,-0.3814,-0.3751,-0.3722,-0.3674,-0.3701,-0.3649,-0.3612,-0.3618,-0.3551,-0.3529,-0.3485,-0.3409,-0.3374,-0.3388,-0.326,-0.3297,-0.3292,-0.3287,-0.3244,-0.3233,-0.3222,-0.3359,-0.3359,-0.336,0,0,-0.3796,-0.377,-0.3714,-0.3685,-0.3643,-0.3628,-0.3614,-0.3572,-0.3558,-0.349,-0.3494,-0.345,-0.3366,-0.3335,-0.3308,-0.322,-0.3224,-0.3205,-0.3164,-0.3121,-0.3111,-0.3102,-0.307,-0.3059,-0.3197,-0.3197,-0.3197,0,-0.3766,-0.3694,-0.3685,-0.3632,-0.3603,-0.3608,-0.3551,-0.3523,-0.3467,-0.3446,-0.3463,-0.3359,-0.333,-0.3247,-0.3225,-0.3203,-0.3187,-0.321,-0.3113,-0.3105,-0.3096,-0.3066,-0.3054,-0.3195,-0.3195,-0.3196,-0.3196,0,-0.3659,-0.3609,-0.3569,-0.3516,-0.3483,-0.3428,-0.3409,-0.3376,-0.3373,-0.3356,-0.3286,-0.3251,-0.3198,-0.3177,-0.3173,-0.3093,-0.3103,-0.3117,-0.3147,-0.3083,-0.3053,-0.3042,-0.3192,-0.3193,-0.3193,-0.3194,0,0,-0.3566,-0.3509,-0.3494,-0.347,-0.3423,-0.3384,-0.3329,-0.3277,-0.3249,-0.321,-0.3163,-0.3092,-0.3105,-0.3074,-0.3067,-0.3029,-0.2961,-0.3047,-0.3046,-0.3032,-0.2869,-0.2859,-0.2846,-0.2964,-0.2961,-0.296,-0.2873,0,-0.3484,-0.3388,-0.3378,-0.3292,-0.3245,-0.3249,-0.3201,-0.3167,-0.3149,-0.3106,-0.3085,-0.3036,-0.3056,-0.3038,-0.3,-0.2977,-0.2928,-0.2983,-0.2918,-0.2916,-0.2929,-0.283,-0.2819,-0.2739,-0.2861,-0.2859,-0.2858,0,-0.3376,-0.3335,-0.3245,-0.3205,-0.3185,-0.3142,-0.3094,-0.3053,-0.3013,-0.3003,-0.2969,-0.2967,-0.2909,-0.2942,-0.2861,-0.2899,-0.2872,-0.2856,-0.2853,-0.2846,-0.2883,-0.282,-0.2713,-0.2701,-0.284,-0.2841,-0.2843,0,-0.3317,-0.3239,-0.3175,-0.3154,-0.3106,-0.3075,-0.3053,-0.3016,-0.2986,-0.2944,-0.2924,-0.2875,-0.2848,-0.2809,-0.2793,-0.2819,-0.2713,-0.2745,-0.2702,-0.2702,-0.2679,-0.268,-0.2566,-0.2662,-0.2663,-0.2663,-0.2663,0,-0.3227,-0.3171,-0.3148,-0.3108,-0.3045,-0.3034,-0.2971,-0.2951,-0.2918,-0.2873,-0.2874,-0.2832,-0.2813,-0.2768,-0.2755,-0.269,-0.2678,-0.2667,-0.2664,-0.2666,-0.2668,-0.2648,-0.2653,-0.266,-0.266,-0.2661,-0.2661,0,-0.3149,-0.3132,-0.3062,-0.3022,-0.3011,-0.2966,-0.2932,-0.2893,-0.2876,-0.2819,-0.2805,-0.2778,-0.2725,-0.2705,-0.264,-0.2631,-0.2556,-0.2558,-0.2569,-0.2568,-0.2527,-0.2531,-0.2394,-0.2376,-0.2485,-0.2484,-0.2484,0,-0.3093,-0.305,-0.3006,-0.2977,-0.2954,-0.2907,-0.2877,-0.2863,-0.2831,-0.2783,-0.275,-0.2697,-0.2655,-0.2569,-0.2543,-0.2493,-0.2493,-0.2449,-0.2485,-0.2489,-0.2492,-0.2494,-0.249,-0.2442,-0.2441,-0.244,-0.2439,0,-0.2994,-0.2987,-0.2944,-0.2897,-0.2861,-0.2823,-0.2787,-0.2762,-0.2743,-0.2707,-0.2653,-0.262,-0.2554,-0.2502,-0.2451,-0.2427,-0.2429,-0.2428,-0.2415,-0.2417,-0.2425,-0.242,-0.255,-0.2431,-0.2432,-0.2432,-0.2433,-0.2433,-0.2925,-0.2887,-0.285,-0.2802,-0.2773,-0.2739,-0.27,-0.2679,-0.2634,-0.258,-0.2575,-0.2517,-0.2478,-0.241,-0.2384,-0.2337,-0.2349,-0.2331,-0.2326,-0.2322,-0.2319,-0.2433,-0.2328,-0.2328,-0.2328,-0.2328,-0.2329,0,-0.2825,-0.2802,-0.2758,-0.2707,-0.2668,-0.2676,-0.2635,-0.2602,-0.2552,-0.2516,-0.2474,-0.2412,-0.2361,-0.2331,-0.228,-0.2248,-0.2248,-0.2235,-0.2237,-0.2231,-0.2311,-0.2327,-0.2236,-0.2236,-0.2236,-0.2236,-0.2236,-0.2236,-0.2769,-0.2706,-0.2695,-0.2616,-0.2593,-0.2537,-0.2514,-0.2482,-0.2453,-0.2384,-0.2342,-0.2323,-0.2289,-0.2236,-0.2189,-0.2181,-0.2162,-0.2148,-0.2141,-0.2216,-0.2226,-0.2235,-0.225,-0.2144,-0.2144,-0.2065,-0.2065,-0.2064]},{"header":{"parameterUnit":"m.s-1","parameterCategory":1,"la1":30.2991,"la2":30.254,"lo1":-89.0895,"lo2":-89.0444,"dy":0.0017,"dx":0.0017,"nx":28,"ny":28,"refTime":"2023-09-10T21:00:00:Z","depth":0,"parameterNumber":3,"parameterNumberName":"V-component_of_WINDS"},"data":[0,0,0,0,0,0,0,0,0,0,0,0,0,0,0,0,0,0,0,0,0,0,0,0,0,0,0,0,0,0,0,0,0,0,0,0,0,0,0,0,0,0,0,0,0,0,0,0,0,0,0,0,0,0,0,0,0,0,2.2867,2.2866,0,2.2839,2.2839,2.2838,2.2851,2.2852,2.2853,2.2853,2.282,2.2819,2.2817,0,0,0,0,0,0,0,0,0,0,0,0,0,2.2926,2.2925,2.2867,2.2866,2.2866,2.2839,2.2839,2.2838,2.2851,2.2852,2.2853,2.2854,2.2821,2.2819,2.2817,0,0,0,0,0,0,0,0,0,0,0,0,0,2.29,2.2925,2.2867,2.2869,2.2869,2.2839,2.2839,2.2838,2.2851,2.2852,2.2853,2.2854,2.2821,2.2819,2.2817,2.2781,0,0,2.281,2.2809,0,0,0,0,0,0,0,0,2.2901,2.2897,2.2869,2.2869,2.2869,2.285,2.2848,2.2819,2.2851,2.2858,2.2853,2.2855,2.2829,2.2826,2.2818,2.278,2.2778,2.281,2.2808,2.2807,2.2807,0,0,0,0,0,0,0,2.2903,2.2899,2.2856,2.2869,2.2869,2.287,2.2868,2.2842,2.2837,2.2857,2.2858,2.2855,2.2829,2.2821,2.2818,2.2778,2.281,2.2808,2.2806,2.2805,2.2708,2.2707,0,0,0,0,0,0,2.2905,2.29,2.2856,2.2855,2.2888,2.2868,2.2866,2.2855,2.2838,2.2836,2.2854,2.2856,2.2824,2.282,2.2817,2.2773,2.2807,2.2805,2.2804,2.2709,2.2707,2.2706,0,0,0,0,0,0,2.2906,2.2901,2.2858,2.2878,2.2872,2.2866,2.2854,2.2854,2.2845,2.2836,2.2834,2.2847,2.2825,2.282,2.279,2.2772,2.2804,2.2802,2.271,2.2708,2.2707,2.2686,0,0,0,0,0,0,2.2908,2.2902,2.2889,2.2877,2.2871,2.2833,2.2853,2.2852,2.2842,2.2844,2.2828,2.2827,2.2825,2.2794,2.2788,2.2769,2.28,2.2712,2.2709,2.2707,2.2688,2.2684,2.268,0,0,0,0,0,2.291,2.2883,2.2888,2.2883,2.2856,2.2832,2.2828,2.2828,2.284,2.2827,2.2821,2.2827,2.2775,2.279,2.2784,2.2765,2.2713,2.271,2.2708,2.269,2.2684,2.268,0,0,0,0,0,0,2.2891,2.2882,2.2887,2.2856,2.2845,2.2834,2.2817,2.2823,2.2806,2.2808,2.2808,2.2805,2.2774,2.2766,2.2783,2.2729,2.2746,2.2742,2.2735,2.2729,2.2725,2.2727,2.2798,0,0,0,0,0,2.2884,2.2867,2.2859,2.2832,2.2827,2.2823,2.2812,2.2814,2.2801,2.2796,2.2788,2.2774,2.2755,2.2742,2.2724,2.2688,2.2684,2.2671,2.2667,2.2664,2.2659,2.2639,2.2632,2.2697,2.2697,2.2697,0,0,2.2868,2.2861,2.2849,2.2828,2.282,2.2801,2.2819,2.2798,2.2783,2.2792,2.2764,2.2757,2.2742,2.2709,2.2694,2.2702,2.2641,2.266,2.2657,2.2655,2.2635,2.2629,2.2623,2.2695,2.2696,2.2696,0,0,2.2828,2.2822,2.2798,2.279,2.2777,2.2775,2.2769,2.2758,2.2754,2.2726,2.2733,2.2714,2.2681,2.267,2.266,2.2616,2.2621,2.261,2.2588,2.2567,2.2562,2.2558,2.2541,2.2535,2.2607,2.2607,2.2607,0,2.2809,2.2782,2.2785,2.2764,2.2754,2.2764,2.2739,2.273,2.2711,2.2703,2.2713,2.2672,2.2662,2.2626,2.2615,2.2607,2.2599,2.2611,2.2563,2.2558,2.2554,2.2538,2.2532,2.2605,2.2606,2.2606,2.2606,0,2.2758,2.2739,2.2722,2.2705,2.2693,2.267,2.2668,2.2656,2.2658,2.2655,2.2625,2.2614,2.2594,2.2585,2.2587,2.2549,2.2554,2.2564,2.258,2.2547,2.2531,2.2525,2.2603,2.2604,2.2604,2.2605,0,0,2.2705,2.2691,2.2684,2.2676,2.2663,2.2648,2.2625,2.2606,2.2595,2.2582,2.2561,2.2533,2.2542,2.253,2.2531,2.2514,2.2478,2.2525,2.2524,2.2515,2.2433,2.2425,2.2418,2.2482,2.2481,2.248,2.2434,0,2.2663,2.2624,2.2627,2.2589,2.2571,2.258,2.256,2.2549,2.2545,2.2528,2.2523,2.2503,2.2517,2.2509,2.2493,2.2486,2.2461,2.249,2.2461,2.246,2.2463,2.241,2.2402,2.2359,2.2428,2.2427,2.2427,0,2.2609,2.2595,2.2557,2.2546,2.2538,2.252,2.2503,2.2487,2.2474,2.2473,2.246,2.2464,2.2439,2.2458,2.2422,2.2442,2.243,2.2425,2.2423,2.2419,2.244,2.2403,2.2345,2.2338,2.2417,2.2418,2.2419,0,2.2571,2.2544,2.2517,2.251,2.2497,2.2484,2.2478,2.2467,2.2455,2.244,2.2432,2.2414,2.2403,2.2388,2.2385,2.24,2.2349,2.2368,2.2345,2.2345,2.2333,2.2333,2.2271,2.2328,2.2329,2.2329,2.2329,0,2.2523,2.2499,2.25,2.2483,2.2455,2.2458,2.243,2.2425,2.2415,2.2396,2.2404,2.2385,2.2385,2.2366,2.2364,2.2334,2.2329,2.2326,2.2325,2.2324,2.2324,2.2315,2.2317,2.2327,2.2327,2.2328,2.2328,0,2.2476,2.2476,2.2447,2.2438,2.2436,2.2415,2.2407,2.239,2.2388,2.2364,2.2358,2.2353,2.2331,2.2328,2.2302,2.2301,2.2264,2.2268,2.2269,2.2269,2.2245,2.2247,2.2173,2.2163,2.2229,2.2229,2.2228,0,2.2445,2.2426,2.2416,2.2405,2.2398,2.238,2.2369,2.2371,2.2358,2.2342,2.2327,2.2306,2.2289,2.2254,2.2246,2.2226,2.2228,2.2204,2.2225,2.2224,2.2226,2.2226,2.2223,2.2199,2.2198,2.2198,2.2197,0,2.2388,2.239,2.2374,2.2358,2.2344,2.2331,2.2319,2.2309,2.2309,2.2295,2.2273,2.226,2.2235,2.2213,2.2193,2.2185,2.219,2.2191,2.2184,2.2182,2.2183,2.218,2.2256,2.2192,2.2193,2.2193,2.2193,2.2194,2.2347,2.2331,2.2321,2.2303,2.2294,2.2283,2.2266,2.2262,2.2245,2.2225,2.2227,2.2203,2.219,2.2164,2.2155,2.2135,2.2142,2.2133,2.213,2.2128,2.2124,2.2188,2.2131,2.2131,2.2132,2.2132,2.2132,0,2.2289,2.2284,2.2267,2.2251,2.2236,2.2245,2.2232,2.2219,2.2198,2.2186,2.217,2.2145,2.2124,2.2116,2.2095,2.208,2.2082,2.2075,2.2075,2.2072,2.212,2.2127,2.2074,2.2074,2.2074,2.2074,2.2074,2.2074,2.2258,2.223,2.223,2.2198,2.2193,2.217,2.2162,2.215,2.2141,2.2113,2.2097,2.2092,2.2081,2.206,2.2041,2.2039,2.203,2.2021,2.202,2.2064,2.2069,2.2075,2.2081,2.202,2.202,2.1974,2.1974,2.1973]}]]